Time,TemperatureF,DewpointF,PressureIn,WindDirection,WindDirectionDegrees,WindSpeedMPH,WindSpeedGustMPH,Humidity,HourlyPrecipIn,Conditions,Clouds,dailyrainin,SoftwareType,DateUTC
2013-09-22 00:13:00,47.0,43.0,-100.00,ESE,115,6.0,11.0,85,-99.99,,,-99.99,,2013-09-22 05:13:00,
2013-09-22 00:23:00,47.0,43.0,-100.00,ESE,115,6.0,11.0,85,-99.99,,,-99.99,,2013-09-22 05:23:00,
2013-09-22 00:43:00,47.0,43.0,-100.00,ESE,105,6.0,10.0,87,-99.99,,,-99.99,,2013-09-22 05:43:00,
2013-09-22 00:53:00,47.0,43.0,-100.00,ESE,105,6.0,10.0,87,-99.99,,,-99.99,,2013-09-22 05:53:00,
2013-09-22 01:12:00,46.0,43.0,-100.00,ESE,105,6.0,9.0,89,-99.99,,,-99.99,,2013-09-22 06:12:00,
2013-09-22 01:22:00,46.0,43.0,-100.00,ESE,105,6.0,9.0,89,-99.99,,,-99.99,,2013-09-22 06:22:00,
2013-09-22 01:42:00,46.0,43.0,-100.00,SE,125,7.0,10.0,90,-99.99,,,-99.99,,2013-09-22 06:42:00,
2013-09-22 01:52:00,46.0,43.0,-100.00,SE,125,7.0,10.0,90,-99.99,,,-99.99,,2013-09-22 06:52:00,
2013-09-22 02:11:00,46.0,44.0,-100.00,SE,125,7.0,12.0,91,-99.99,,,-99.99,,2013-09-22 07:11:00,
2013-09-22 02:21:00,46.0,44.0,-100.00,SE,125,7.0,12.0,91,-99.99,,,-99.99,,2013-09-22 07:21:00,
2013-09-22 02:42:00,46.0,44.0,-100.00,ESE,115,6.0,9.0,92,-99.99,,,-99.99,,2013-09-22 07:42:00,
2013-09-22 02:52:00,46.0,44.0,-100.00,ESE,115,6.0,9.0,92,-99.99,,,-99.99,,2013-09-22 07:52:00,
2013-09-22 03:12:00,47.0,45.0,-100.00,SE,125,9.0,12.0,93,-99.99,,,-99.99,,2013-09-22 08:12:00,
2013-09-22 03:22:00,47.0,45.0,-100.00,SE,125,9.0,12.0,93,-99.99,,,-99.99,,2013-09-22 08:22:00,
2013-09-22 03:42:00,47.0,45.0,-100.00,SE,130,7.0,12.0,93,-99.99,,,-99.99,,2013-09-22 08:42:00,
2013-09-22 03:52:00,47.0,45.0,-100.00,SE,130,7.0,12.0,93,-99.99,,,-99.99,,2013-09-22 08:52:00,
2013-09-22 04:11:00,48.0,46.0,-100.00,SE,135,9.0,16.0,92,-99.99,,,-99.99,,2013-09-22 09:11:00,
2013-09-22 04:22:00,48.0,46.0,-100.00,SE,135,9.0,16.0,92,-99.99,,,-99.99,,2013-09-22 09:22:00,
2013-09-22 04:43:00,48.0,46.0,-100.00,SE,130,9.0,15.0,91,-99.99,,,-99.99,,2013-09-22 09:43:00,
2013-09-22 04:54:00,48.0,46.0,-100.00,SE,130,9.0,15.0,91,-99.99,,,-99.99,,2013-09-22 09:54:00,
2013-09-22 05:12:00,47.0,45.0,-100.00,ESE,120,9.0,13.0,92,-99.99,,,-99.99,,2013-09-22 10:12:00,
2013-09-22 05:23:00,47.0,45.0,-100.00,ESE,120,9.0,13.0,92,-99.99,,,-99.99,,2013-09-22 10:23:00,
2013-09-22 05:44:00,47.0,45.0,-100.00,SE,130,8.0,15.0,93,-99.99,,,-99.99,,2013-09-22 10:44:00,
2013-09-22 05:53:00,47.0,45.0,-100.00,SE,130,8.0,15.0,93,-99.99,,,-99.99,,2013-09-22 10:53:00,
2013-09-22 06:12:00,48.0,46.0,-100.00,SE,125,9.0,16.0,93,-99.99,,,-99.99,,2013-09-22 11:12:00,
2013-09-22 06:22:00,48.0,46.0,-100.00,SE,125,9.0,16.0,93,-99.99,,,-99.99,,2013-09-22 11:22:00,
2013-09-22 06:42:00,47.0,45.0,-100.00,SE,125,10.0,17.0,92,-99.99,,,-99.99,,2013-09-22 11:42:00,
2013-09-22 06:52:00,47.0,45.0,-100.00,SE,125,10.0,17.0,92,-99.99,,,-99.99,,2013-09-22 11:52:00,
2013-09-22 07:12:00,47.0,45.0,-100.00,ESE,120,10.0,17.0,93,-99.99,,,-99.99,,2013-09-22 12:12:00,
2013-09-22 07:22:00,47.0,45.0,-100.00,ESE,120,10.0,17.0,93,-99.99,,,-99.99,,2013-09-22 12:22:00,
2013-09-22 07:42:00,47.0,45.0,-100.00,ESE,120,9.0,15.0,93,-99.99,,,-99.99,,2013-09-22 12:42:00,
2013-09-22 07:52:00,47.0,45.0,-100.00,ESE,120,9.0,15.0,93,-99.99,,,-99.99,,2013-09-22 12:52:00,
2013-09-22 08:12:00,47.0,45.0,-100.00,ESE,120,7.0,14.0,94,-99.99,,,-99.99,,2013-09-22 13:12:00,
2013-09-22 08:22:00,47.0,45.0,-100.00,ESE,120,7.0,14.0,94,-99.99,,,-99.99,,2013-09-22 13:22:00,
2013-09-22 08:42:00,48.0,47.0,-100.00,ESE,115,9.0,14.0,94,-99.99,,,-99.99,,2013-09-22 13:42:00,
2013-09-22 08:52:00,48.0,47.0,-100.00,ESE,115,9.0,14.0,94,-99.99,,,-99.99,,2013-09-22 13:52:00,
2013-09-22 09:02:00,48.0,47.0,-100.00,ESE,115,9.0,14.0,94,-99.99,,,-99.99,,2013-09-22 14:02:00,
2013-09-22 10:12:00,57.0,48.0,-100.00,SE,140,14.0,26.0,72,-99.99,,,-99.99,,2013-09-22 15:12:00,
2013-09-22 10:23:00,57.0,48.0,-100.00,SE,140,14.0,26.0,72,-99.99,,,-99.99,,2013-09-22 15:23:00,
2013-09-22 10:44:00,59.0,48.0,-100.00,SE,140,12.0,23.0,66,-99.99,,,-99.99,,2013-09-22 15:44:00,
2013-09-22 10:55:00,59.0,48.0,-100.00,SE,140,12.0,23.0,66,-99.99,,,-99.99,,2013-09-22 15:55:00,
2013-09-22 11:13:00,62.0,48.0,-100.00,SE,135,15.0,27.0,62,-99.99,,,-99.99,,2013-09-22 16:13:00,
2013-09-22 11:24:00,62.0,48.0,-100.00,SE,135,15.0,27.0,62,-99.99,,,-99.99,,2013-09-22 16:24:00,
2013-09-22 11:43:00,64.0,48.0,-100.00,SSE,155,16.0,27.0,57,-99.99,,,-99.99,,2013-09-22 16:43:00,
2013-09-22 11:54:00,64.0,48.0,-100.00,SSE,155,16.0,27.0,57,-99.99,,,-99.99,,2013-09-22 16:54:00,
2013-09-22 12:12:00,66.0,49.0,-100.00,SSE,150,12.0,27.0,54,-99.99,,,-99.99,,2013-09-22 17:12:00,
2013-09-22 12:23:00,66.0,49.0,-100.00,SSE,150,12.0,27.0,54,-99.99,,,-99.99,,2013-09-22 17:23:00,
2013-09-22 12:34:00,66.0,49.0,-100.00,SSE,150,12.0,27.0,54,-99.99,,,-99.99,,2013-09-22 17:34:00,
2013-09-22 13:42:00,71.0,50.0,-100.00,SE,140,18.0,30.0,48,-99.99,,,-99.99,,2013-09-22 18:42:00,
2013-09-22 13:52:00,71.0,50.0,-100.00,SE,140,18.0,30.0,48,-99.99,,,-99.99,,2013-09-22 18:52:00,
2013-09-22 14:11:00,72.0,50.0,-100.00,SSE,150,22.0,33.0,46,-99.99,,,-99.99,,2013-09-22 19:11:00,
2013-09-22 14:22:00,72.0,50.0,-100.00,SSE,150,22.0,33.0,46,-99.99,,,-99.99,,2013-09-22 19:22:00,
2013-09-22 14:42:00,74.0,51.0,-100.00,SE,140,20.0,35.0,45,-99.99,,,-99.99,,2013-09-22 19:42:00,
2013-09-22 14:52:00,74.0,51.0,-100.00,SE,140,20.0,35.0,45,-99.99,,,-99.99,,2013-09-22 19:52:00,
2013-09-22 15:12:00,75.0,51.0,-100.00,SSE,155,17.0,32.0,44,-99.99,,,-99.99,,2013-09-22 20:12:00,
2013-09-22 15:22:00,75.0,51.0,-100.00,SSE,155,17.0,32.0,44,-99.99,,,-99.99,,2013-09-22 20:22:00,
2013-09-22 15:42:00,77.0,53.0,-100.00,SE,140,19.0,34.0,43,-99.99,,,-99.99,,2013-09-22 20:42:00,
2013-09-22 15:52:00,77.0,53.0,-100.00,SE,140,19.0,34.0,43,-99.99,,,-99.99,,2013-09-22 20:52:00,
2013-09-22 16:12:00,77.0,53.0,-100.00,SSE,155,16.0,35.0,43,-99.99,,,-99.99,,2013-09-22 21:12:00,
2013-09-22 16:23:00,77.0,53.0,-100.00,SSE,155,16.0,35.0,43,-99.99,,,-99.99,,2013-09-22 21:23:00,
2013-09-22 16:45:00,78.0,54.0,-100.00,SE,140,17.0,29.0,44,-99.99,,,-99.99,,2013-09-22 21:45:00,
2013-09-22 16:54:00,78.0,54.0,-100.00,SE,140,17.0,29.0,44,-99.99,,,-99.99,,2013-09-22 21:54:00,
2013-09-22 17:14:00,77.0,54.0,-100.00,SSE,160,22.0,34.0,45,-99.99,,,-99.99,,2013-09-22 22:14:00,
2013-09-22 17:24:00,77.0,54.0,-100.00,SSE,160,22.0,34.0,45,-99.99,,,-99.99,,2013-09-22 22:24:00,
2013-09-22 17:43:00,77.0,54.0,-100.00,SSE,165,19.0,31.0,45,-99.99,,,-99.99,,2013-09-22 22:43:00,
2013-09-22 17:54:00,77.0,54.0,-100.00,SSE,165,19.0,31.0,45,-99.99,,,-99.99,,2013-09-22 22:54:00,
2013-09-22 18:12:00,77.0,54.0,-100.00,SSE,150,19.0,34.0,46,-99.99,,,-99.99,,2013-09-22 23:12:00,
2013-09-22 18:22:00,77.0,54.0,-100.00,SSE,150,19.0,34.0,46,-99.99,,,-99.99,,2013-09-22 23:22:00,
2013-09-22 18:43:00,76.0,54.0,-100.00,SE,140,18.0,31.0,47,-99.99,,,-99.99,,2013-09-22 23:43:00,
2013-09-22 18:52:00,76.0,54.0,-100.00,SE,140,18.0,31.0,47,-99.99,,,-99.99,,2013-09-22 23:52:00,
2013-09-22 19:12:00,75.0,54.0,-100.00,SE,140,15.0,26.0,49,-99.99,,,-99.99,,2013-09-23 00:12:00,
2013-09-22 19:23:00,75.0,54.0,-100.00,SE,140,15.0,26.0,49,-99.99,,,-99.99,,2013-09-23 00:23:00,
2013-09-22 19:42:00,74.0,54.0,-100.00,SE,135,14.0,24.0,51,-99.99,,,-99.99,,2013-09-23 00:42:00,
2013-09-22 19:53:00,74.0,54.0,-100.00,SE,135,14.0,24.0,51,-99.99,,,-99.99,,2013-09-23 00:53:00,
2013-09-22 20:12:00,72.0,54.0,-100.00,SE,130,14.0,24.0,54,-99.99,,,-99.99,,2013-09-23 01:12:00,
2013-09-22 20:22:00,72.0,54.0,-100.00,SE,130,14.0,24.0,54,-99.99,,,-99.99,,2013-09-23 01:22:00,
2013-09-22 20:43:00,71.0,54.0,-100.00,SE,140,17.0,30.0,56,-99.99,,,-99.99,,2013-09-23 01:43:00,
2013-09-22 20:52:00,71.0,54.0,-100.00,SE,140,17.0,30.0,56,-99.99,,,-99.99,,2013-09-23 01:52:00,
2013-09-22 21:11:00,70.0,55.0,-100.00,SE,140,14.0,26.0,60,-99.99,,,-99.99,,2013-09-23 02:11:00,
2013-09-22 21:22:00,70.0,55.0,-100.00,SE,140,14.0,26.0,60,-99.99,,,-99.99,,2013-09-23 02:22:00,
2013-09-22 21:32:00,70.0,55.0,-100.00,SE,140,14.0,26.0,60,-99.99,,,-99.99,,2013-09-23 02:32:00,
2013-09-22 22:12:00,69.0,56.0,-100.00,SE,140,18.0,29.0,64,-99.99,,,-99.99,,2013-09-23 03:12:00,
2013-09-22 22:23:00,69.0,56.0,-100.00,SE,140,18.0,29.0,64,-99.99,,,-99.99,,2013-09-23 03:23:00,
2013-09-22 22:44:00,68.0,56.0,-100.00,SE,140,16.0,27.0,66,-99.99,,,-99.99,,2013-09-23 03:44:00,
2013-09-22 22:54:00,68.0,56.0,-100.00,SE,140,16.0,27.0,66,-99.99,,,-99.99,,2013-09-23 03:54:00,
2013-09-22 23:14:00,69.0,57.0,-100.00,SSE,160,17.0,33.0,66,-99.99,,,-99.99,,2013-09-23 04:14:00,
2013-09-22 23:24:00,69.0,57.0,-100.00,SSE,160,17.0,33.0,66,-99.99,,,-99.99,,2013-09-23 04:24:00,
2013-09-22 23:33:00,69.0,57.0,-100.00,SSE,160,17.0,33.0,66,-99.99,,,-99.99,,2013-09-23 04:33:00,